Current Version              Previous Version:    01  02  03  04  05  06  07  08  09  10  11  12  13  14  15  16  17  18  19  20  21  22  23  24  25  26  27  28  29  30  
   31  32  33  34  35  36  37  38  39  40  41  42  43  44  45  46  47  48  49  50  51  52  53  54  55  56  57  58  59  60  

[Printable]
264
ASUS44 KFWD 220503
RWRTX
NORTH TEXAS HOURLY WEATHER ROUNDUP
NATIONAL WEATHER SERVICE FORT WORTH TX
1100 PM CST SUN DEC 21 2014

NOTE: "FAIR" INDICATES FEW OR NO CLOUDS BELOW 12,000 FEET WITH NO
SIGNIFICANT WEATHER AND/OR OBSTRUCTIONS TO VISIBILITY.

TXZ118-119-220600-
DALLAS/FORT WORTH METROPLEX

CITY           SKY/WX    TMP DP  RH WIND       PRES   REMARKS
DFW AIRPORT    CLOUDY    52  48  86 S17       29.74F
DALLAS LOVE    CLOUDY    52  48  86 S16       29.77F
FTW MEACHAM    CLOUDY    53  48  83 S17       29.72F HAZE
DAL-EXECUTIVE  CLOUDY    53  48  83 S12G20    29.75F
FTW-ALLIANCE   CLOUDY    51  48  89 S15G25    29.72F
ARLINGTON      CLOUDY    53  47  79 S14G24    29.74F
GRAND PRAIRIE  CLOUDY   N/A N/A N/A MISG      29.77F
ADDISON        CLOUDY    52  48  85 S13       29.76F
MESQUITE       CLOUDY    51  48  90 S8        29.79F
LANCASTER      CLOUDY    51  47  84 S10       29.79F
$$

TXZ091>094-102>105-117-120-121-131>134-220600-
NORTH CENTRAL TEXAS

CITY           SKY/WX    TMP DP  RH WIND       PRES   REMARKS
SHRMAN/DENISON CLOUDY    50  49  93 SE8       29.75F
BRIDGEPORT     CLOUDY    51  49  95 S14       29.71F
DECATUR        CLOUDY    50  48  95 S14G22    29.70F
DENTON         CLOUDY    51  47  86 S21       29.72F
MCKINNEY       CLOUDY    51  47  86 S17       29.76F
ROCKWALL       CLOUDY    51  48  90 S8        29.76F
TERRELL        CLOUDY    53  48  83 S13       29.80F
WAXAHACHIE     CLOUDY    52  51  97 S12G17    29.79F
CLEBURNE       CLOUDY    52  52 100 S14       29.76F
GRANBURY       CLOUDY    53  49  86 SE10G17   29.74F
$$

TXZ083>090-098>101-113>116-127>130-139>142-154-155-220600-
WESTERN NORTH TEXAS

CITY           SKY/WX    TMP DP  RH WIND       PRES   REMARKS
WICHITA FALLS  CLEAR     50  45  83 S18       29.61F
WF-KICKAPOO    PTCLDY    50  45  83 S12       29.63F
VERNON         PTCLDY    49  41  74 S9        29.59F
ABILENE        MOCLDY    51  43  74 S24G32    29.67F
BRECKENRIDGE   CLOUDY    54  44  68 S20G26    29.67S
MINERAL WELLS  CLOUDY    49  47  93 SE12      29.69F
STEPHENVILLE   CLOUDY    49  46  90 S8        29.76F
COMANCHE       CLOUDY    49  48  95 S20G25    29.74F
COLEMAN        CLOUDY    49  45  86 SW16G22   29.74F
BRADY          PTCLDY    48  46  93 S12       29.77F
$$

TXZ143>147-156>162-174-175-220600-
CENTRAL TEXAS

CITY           SKY/WX    TMP DP  RH WIND       PRES   REMARKS
WACO           CLOUDY    54  50  86 S13       29.81R
WACO-TSTC      CLOUDY    54  50  87 S10       29.82
WACO-MCGREGOR  CLOUDY    54  46  76 S14       29.81F
CORSICANA      CLOUDY    54  49  83 S14       29.83S
MEXIA          CLOUDY    53  50  91 S10       29.82S
HEARNE         CLOUDY    54  52  91 SE6       29.85S
TEMPLE         CLOUDY    54  46  76 S17       29.80S
KILLEEN        CLOUDY    53  49  86 S16G24    29.79F
KILLEEN-SKYLRK CLOUDY    54  45  71 S14       29.79R
FORT HOOD      CLOUDY    54  49  82 S16G24    29.79F
GATESVILLE     CLOUDY    54  48  82 S12G17    29.81S
HAMILTON       CLOUDY    49  49 100 S17G26    29.77F
$$

TXZ095>097-106>112-122>126-135>138-148>153-164>167-220600-
EAST TEXAS

CITY           SKY/WX    TMP DP  RH WIND       PRES   REMARKS
PARIS          CLOUDY    48  43  81 SE9       29.82F
SULPHUR SPRNGS CLOUDY    50  46  86 S7        29.83F
MOUNT PLEASANT CLOUDY    50  46  83 S8        29.85S
MINEOLA        CLOUDY    52  48  87 S7        29.83F
TYLER          CLOUDY    50  46  86 S7        29.83F
LONGVIEW       CLOUDY    51  46  83 S7        29.84R
MARSHALL       MOCLDY    51  48  89 S5        29.87S
PALESTINE      CLOUDY    52  49  90 SE5       29.86R
JACKSONVILLE   CLOUDY    51  48  92 S7        29.85S
HENDERSON      CLOUDY    50  47  91 S7        29.86R
NACOGDOCHES    CLOUDY    48  46  93 S8        29.87F
LUFKIN         CLOUDY    53  48  83 SE10      29.86F
$$

SUPPLEMENTAL OBSERVATIONS (CENTRAL)

CITY           SKY/WX    TMP DP  RH WIND       PRES   REMARKS
$$

SUPPLEMENTAL OBSERVATIONS (WEST)

CITY           SKY/WX    TMP DP  RH WIND       PRES   REMARKS
$$

SUPPLEMENTAL OBSERVATIONS (EAST)

CITY           SKY/WX    TMP DP  RH WIND       PRES   REMARKS
$$

SUPPLEMENTAL OBSERVATIONS ARE A COLLECTION OF AUTOMATED INSTRUMENTS
THAT ARE MAINTAINED BY A VARIETY OF FEDERAL AND STATE AGENCIES.
CERTAIN ELEMENTS...SUCH AS HUMIDITY VALUES AND SUSTAINED WIND
SPEEDS...MAY BE APPROXIMATED.